CZ-6A DEB

Satellite information

Favourite Embed

Satellite Type and Status

DEBRISIN ORBIT

Key statistics

Satellite CZ-6A DEB at a glance.

Uptime

1027

Days in orbit

Revolutions

≈ 13.2

Per day

Orbit

SSO

Sun Synchronous Orbit

Inclination

98.9

Latest

Satellite identification and parameters

Extended collection of information and parameters for CZ-6A DEB.

Object identification

Identified? True

Debris? True

Object name: CZ-6A DEB

International designator: 2022-151PX

Object number (NORAD): 54886

Object ID (CCSDS): 54886

Country: PEOPLES REPUBLIC OF CHINA (PRC)

Current information (Y/N): Y

RCS size: SMALL

Orbital parameters

Period: 109.204 minutes

Inclination: 98.9423 deg

SMA: 7568.087 km

Apoapsis: 1564.166 km

Periapsis: 815.739 km

RAAN: 117.6401 deg

Eccentricy: 0.04944628

Argument of periapsis: 100.7759 deg

Mean anomaly: 264.9404 deg

Mean motion: 13.18631828 rev/day

Mean motion (dot): 0.00000179 rev/day2

B* drag term: 0.00028267124 1/REarth

Two-line elements (TLE)

Creation date: Sept. 3, 2025, 2:21 a.m.

Reference frame: TEME

Reference center: EARTH

Epoch: Sept. 2, 2025, 3:15 p.m. UTC

TLE line 0: 0 CZ-6A DEB

TLE line 1: 1 54886U 22151PX 25245.63559878 .00000179 00000-0 28267-3 0 9996

TLE line 2: 2 54886 98.9423 117.6401 0494463 100.7759 264.9404 13.18631828135107

Live tracking on map

Real-time ground track for satellite CZ-6A DEB.

In-orbit conjunctions

A list of the most updated potential collisions computed for object CZ-6A DEB.

Target Orbit TCA Probability of collision Miss distance Type
NOAA 16 DEB SSO 2024-12-05 10:52:58 0.000571605 40.0 (m) DEBRIS
CZ-6A DEB LEO 2024-11-26 23:00:35 0.0002151195 136.0 (m) DEBRIS

Associated space launch

Chinese satellite reported for atmospheric/ocean/environmental/spatial parameter research purposes, details TBD.

CZ-6A DEB was lifted into orbit during the mission ‘Long March 6A | Yunhai 3’, on board a Long March 6A space rocket.

The launch took place on Nov. 11, 2022, 10:52 p.m. from Launch Complex 9A.

For more information about the launch, click the button.

Launch to space Long March 6A | Yunhai 3
Long March 6A | Yunhai 3

Agency: N/A

Status: Launch Successful

Launch date: Nov. 11, 2022, 10:52 p.m. UTC

Rocket: Long March 6A

Launch pad: Launch Complex 9A

Location: Taiyuan Satellite Launch Center, People's Republic of China

...

Latest news about this satellite

There are no fresh news available about this satellite. Check back as we update our databases every day.


Newsletter sign-up

Weekly statistics, charts and insights to help you stay on top of the space industry.